Location: Eboldshausen
(51.7766°N, 10.0050°E)
Time: 05:45:53
(UTC+00:00)

Cosmos 1869 - Pass Details

Date: 15 November 2025
Orbit: 453 x 481 km, 82.5° (Epoch: 10 December)

Event Time Altitude Azimuth Distance (km) Brightness Sun altitude
Rises 16:36:26 0° 161° (SSE) 2,495 6.7 -10.3°
Reaches altitude 10° 16:38:43 10° 149° (SSE) 1,618 5.6 -10.7°
Maximum altitude 16:41:43 26° 91° (E) 939 4.0 -11.1°
Enters shadow 16:44:22 12° 36° (NE) 1,493 5.1 -11.5°
